OE3BCB-14 Weather Reports


time (UTC)temp
C
wind
direction
speed
KPH
gust
KPH
rain 1hr
cm
rain 24hr
cm
rain mn
cm
humidity
%
barometer
mb
20260507185646 18 180 0.0 35.4 0.00 0.00 0.00 41 1016.4
20260507185144 18 180 0.0 32.2 0.00 0.00 0.00 40 1016.3
20260507184641 18 225 30.6 37.0 0.00 0.00 0.00 39 1016.2
20260507184139 18 225 0.0 20.9 0.00 0.00 0.00 39 1016.1
20260507183134 18 180 1.6 8.0 0.00 0.00 0.00 39 1016.1
20260507182632 18 180 0.0 32.2 0.00 0.00 0.00 38 1016.0
20260507182129 18 180 1.6 4.8 0.00 0.00 0.00 38 1015.9
20260507181627 19 225 0.0 19.3 0.00 0.00 0.00 38 1015.9
20260507181124 19 225 0.0 29.0 0.00 0.00 0.00 38 1015.8
20260507180622 19 180 0.0 37.0 0.00 0.00 0.00 37 1015.8
20260507180120 19 225 0.0 33.8 0.00 0.00 0.00 37 1015.8
20260507175617 19 225 0.0 30.6 0.00 0.00 0.00 37 1015.7
20260507175115 19 180 0.0 14.5 0.00 0.00 0.00 37 1015.7
20260507174612 19 270 1.6 30.6 0.00 0.00 0.00 37 1015.6
20260507174110 20 180 0.0 38.6 0.00 0.00 0.00 37 1015.6
20260507173608 20 180 3.2 32.2 0.00 0.00 0.00 36 1015.5
20260507173105 20 180 3.2 38.6 0.00 0.00 0.00 36 1015.4
20260507172603 20 270 1.6 37.0 0.00 0.00 0.00 36 1015.4
20260507172100 20 225 4.8 25.7 0.00 0.00 0.00 35 1015.3
20260507171558 20 180 1.6 35.4 0.00 0.00 0.00 35 1015.2
20260507171056 20 180 1.6 12.9 0.00 0.00 0.00 35 1015.1
20260507170553 20 180 3.2 3.2 0.00 0.00 0.00 34 1015.0
20260507170051 20 180 1.6 70.8 0.00 0.00 0.00 34 1015.0
20260507165548 20 135 4.8 32.2 0.00 0.00 0.00 34 1014.9
20260507165046 21 180 30.6 32.2 0.00 0.00 0.00 34 1014.9
20260507164543 21 225 3.2 35.4 0.00 0.00 0.00 34 1014.8
20260507164041 21 180 0.0 35.4 0.00 0.00 0.00 33 1014.8
20260507163539 21 180 0.0 6.4 0.00 0.00 0.00 33 1014.8
20260507163036 21 180 1.6 33.8 0.00 0.00 0.00 33 1014.6
20260507162534 21 225 1.6 35.4 0.00 0.00 0.00 33 1014.6
20260507162031 21 180 1.6 30.6 0.00 0.00 0.00 32 1014.6
20260507161529 21 180 4.8 30.6 0.00 0.00 0.00 32 1014.6
20260507161027 22 180 6.4 40.2 0.00 0.00 0.00 32 1014.5
20260507160524 22 225 6.4 37.0 0.00 0.00 0.00 32 1014.5
20260507160022 22 225 1.6 40.2 0.00 0.00 0.00 32 1014.5
20260507155519 22 225 6.4 38.6 0.00 0.00 0.00 32 1014.4
20260507155017 22 180 11.3 49.9 0.00 0.00 0.00 31 1014.3
20260507154514 22 180 3.2 35.4 0.00 0.00 0.00 31 1014.5
20260507154012 22 180 3.2 51.5 0.00 0.00 0.00 31 1014.5
20260507153510 22 225 3.2 35.4 0.00 0.00 0.00 31 1014.5
20260507153007 22 225 1.6 33.8 0.00 0.00 0.00 31 1014.5
20260507152505 22 225 3.2 25.7 0.00 0.00 0.00 31 1014.3
20260507152002 22 180 1.6 33.8 0.00 0.00 0.00 30 1014.2
20260507151500 23 180 1.6 32.2 0.00 0.00 0.00 30 1014.1
20260507150455 23 225 3.2 11.3 0.00 0.00 0.00 30 1014.2
20260507145953 23 225 3.2 33.8 0.00 0.00 0.00 30 1014.1
20260507145450 23 180 1.6 35.4 0.00 0.00 0.00 30 1014.2
20260507144948 23 225 3.2 32.2 0.00 0.00 0.00 30 1014.1
20260507144446 23 180 3.2 32.2 0.00 0.00 0.00 30 1014.1
20260507143441 23 180 0.0 35.4 0.00 0.00 0.00 30 1014.2
20260507142938 23 180 3.2 37.0 0.00 0.00 0.00 29 1014.2
20260507142436 23 225 14.5 32.2 0.00 0.00 0.00 29 1014.1
20260507141933 23 225 37.0 37.0 0.00 0.00 0.00 29 1014.2
20260507141431 24 180 1.6 38.6 0.00 0.00 0.00 29 1014.1
20260507140929 25 225 0.0 17.7 0.00 0.00 0.00 28 1014.1
20260507135924 27 270 0.0 27.4 0.00 0.00 0.00 29 1014.0
20260507135421 25 225 0.0 32.2 0.00 0.00 0.00 28 1014.1
20260507134919 26 180 1.6 32.2 0.00 0.00 0.00 27 1014.0
20260507134417 26 225 0.0 37.0 0.00 0.00 0.00 29 1014.0
20260507133914 26 180 1.6 35.4 0.00 0.00 0.00 28 1014.0
20260507133412 27 180 4.8 35.4 0.00 0.00 0.00 28 1014.1
20260507132909 25 270 1.6 37.0 0.00 0.00 0.00 28 1014.0
20260507132407 26 225 1.6 33.8 0.00 0.00 0.00 29 1014.1
20260507131906 26 225 22.5 33.8 0.00 0.00 0.00 28 1014.2
20260507131402 26 315 0.0 32.2 0.00 0.00 0.00 28 1014.3
20260507130900 27 225 0.0 33.8 0.00 0.00 0.00 28 1014.3
20260507130357 30 225 16.1 27.4 0.00 0.00 0.00 26 1014.4
20260507125855 28 180 1.6 9.7 0.00 0.00 0.00 29 1014.3
20260507125352 27 180 3.2 37.0 0.00 0.00 0.00 28 1014.3
20260507124850 29 315 0.0 33.8 0.00 0.00 0.00 28 1014.3
20260507124348 31 270 3.2 24.1 0.00 0.00 0.00 27 1014.3
20260507123845 28 0 3.2 29.0 0.00 0.00 0.00 29 1014.4
20260507123343 25 225 1.6 35.4 0.00 0.00 0.00 30 1014.4
20260507122840 26 225 6.4 29.0 0.00 0.00 0.00 29 1014.4
20260507122338 27 0 0.0 12.9 0.00 0.00 0.00 29 1014.5
20260507121836 26 225 0.0 33.8 0.00 0.00 0.00 30 1014.5
20260507121333 26 270 1.6 35.4 0.00 0.00 0.00 32 1014.6
20260507120831 26 180 1.6 35.4 0.00 0.00 0.00 30 1014.5
20260507120328 27 270 1.6 25.7 0.00 0.00 0.00 29 1014.6
20260507115826 29 225 3.2 29.0 0.00 0.00 0.00 30 1014.6
20260507115323 29 225 0.0 41.8 0.00 0.00 0.00 31 1014.7
20260507114821 28 225 3.2 24.1 0.00 0.00 0.00 31 1014.7
20260507114319 28 225 3.2 27.4 0.00 0.00 0.00 31 1014.9
20260507113816 28 0 0.0 32.2 0.00 0.00 0.00 33 1014.8
20260507113314 28 180 3.2 32.2 0.00 0.00 0.00 32 1014.9
20260507112811 27 315 1.6 32.2 0.00 0.00 0.00 33 1014.9
20260507112309 26 225 4.8 19.3 0.00 0.00 0.00 33 1014.8
20260507111807 26 180 1.6 37.0 0.00 0.00 0.00 34 1015.0
20260507111304 24 225 4.8 9.7 0.00 0.00 0.00 34 1015.0
20260507110802 23 225 3.2 11.3 0.00 0.00 0.00 34 1015.1
20260507110259 23 180 11.3 33.8 0.00 0.00 0.00 34 1015.1
20260507105757 23 180 4.8 35.4 0.00 0.00 0.00 35 1015.1
20260507105255 23 225 19.3 37.0 0.00 0.00 0.00 35 1015.2
20260507104752 23 180 4.8 40.2 0.00 0.00 0.00 35 1015.2
20260507104250 23 225 6.4 32.2 0.00 0.00 0.00 35 1015.3
20260507103747 24 270 8.0 67.6 0.00 0.00 0.00 34 1015.4
20260507103245 25 270 3.2 32.2 0.00 0.00 0.00 35 1015.4
20260507102742 26 225 3.2 29.0 0.00 0.00 0.00 37 1015.5
20260507102240 23 180 1.6 37.0 0.00 0.00 0.00 37 1015.6
20260507101235 22 225 3.2 38.6 0.00 0.00 0.00 36 1015.5
20260507100733 22 225 14.5 35.4 0.00 0.00 0.00 37 1015.6
20260507100230 22 225 59.5 59.5 0.00 0.00 0.00 37 1015.6
20260507095728 22 270 3.2 40.2 0.00 0.00 0.00 36 1015.5
20260507095226 23 180 0.0 30.6 0.00 0.00 0.00 37 1015.4
20260507094723 23 315 1.6 33.8 0.00 0.00 0.00 37 1015.4
20260507094221 22 225 4.8 38.6 0.00 0.00 0.00 38 1015.5
20260507093718 22 225 4.8 43.5 0.00 0.00 0.00 38 1015.5
20260507093216 22 0 1.6 35.4 0.00 0.00 0.00 38 1015.5
20260507092714 22 225 0.0 41.8 0.00 0.00 0.00 38 1015.6
20260507092211 22 180 6.4 41.8 0.00 0.00 0.00 38 1015.4
20260507091709 23 180 38.6 38.6 0.00 0.00 0.00 39 1015.6
20260507091206 23 225 35.4 37.0 0.00 0.00 0.00 40 1015.6
20260507090704 21 315 1.6 37.0 0.00 0.00 0.00 40 1015.4
20260507090201 21 225 3.2 40.2 0.00 0.00 0.00 39 1015.4
20260507085659 22 225 3.2 40.2 0.00 0.00 0.00 40 1015.4
20260507085157 22 270 1.6 38.6 0.00 0.00 0.00 39 1015.3
20260507084654 23 225 1.6 27.4 0.00 0.00 0.00 42 1015.2
20260507084152 21 180 40.2 40.2 0.00 0.00 0.00 42 1015.1
20260507083650 21 180 3.2 37.0 0.00 0.00 0.00 41 1015.1
20260507083147 21 135 4.8 40.2 0.00 0.00 0.00 41 1015.1
20260507082645 22 180 1.6 37.0 0.00 0.00 0.00 43 1015.0
20260507082142 21 180 1.6 37.0 0.00 0.00 0.00 43 1015.0
20260507081640 21 225 1.6 33.8 0.00 0.00 0.00 43 1015.0
20260507081137 21 225 1.6 41.8 0.00 0.00 0.00 44 1015.0
20260507080635 20 225 6.4 46.7 0.00 0.00 0.00 44 1014.9
20260507080133 20 315 4.8 67.6 0.00 0.00 0.00 44 1015.0
20260507075630 20 270 3.2 43.5 0.00 0.00 0.00 44 1014.9
20260507075128 20 270 8.0 72.4 0.00 0.00 0.00 44 1014.8
20260507074625 20 225 3.2 38.6 0.00 0.00 0.00 45 1014.9
20260507074123 19 180 4.8 41.8 0.00 0.00 0.00 45 1015.0
20260507073620 19 225 8.0 41.8 0.00 0.00 0.00 45 1014.8
20260507073118 19 270 0.0 38.6 0.00 0.00 0.00 46 1014.9
20260507072616 19 225 3.2 37.0 0.00 0.00 0.00 46 1014.8
20260507072113 19 225 4.8 43.5 0.00 0.00 0.00 45 1014.7
20260507071611 19 270 3.2 72.4 0.00 0.00 0.00 46 1014.6
20260507071108 19 225 1.6 40.2 0.00 0.00 0.00 46 1014.7
20260507070606 19 180 4.8 41.8 0.00 0.00 0.00 46 1014.5
20260507070104 19 225 1.6 43.5 0.00 0.00 0.00 47 1014.5
20260507065601 19 180 8.0 48.3 0.00 0.00 0.00 46 1014.5
20260507065059 19 225 4.8 46.7 0.00 0.00 0.00 47 1014.6
20260507064556 19 180 37.0 38.6 0.00 0.00 0.00 48 1014.6
20260507064054 18 225 17.7 51.5 0.00 0.00 0.00 48 1014.6
20260507063552 18 225 8.0 67.6 0.00 0.00 0.00 48 1014.5
20260507063049 18 180 3.2 38.6 0.00 0.00 0.00 48 1014.5
20260507062547 18 180 1.6 37.0 0.00 0.00 0.00 49 1014.5
20260507062044 17 180 3.2 46.7 0.00 0.00 0.00 49 1014.3
20260507061542 17 225 3.2 41.8 0.00 0.00 0.00 49 1014.3
20260507061039 17 180 8.0 46.7 0.00 0.00 0.00 49 1014.2
20260507060537 17 225 1.6 38.6 0.00 0.00 0.00 49 1014.3
20260507060035 17 225 27.4 74.0 0.00 0.00 0.00 49 1014.3
20260507055532 17 180 3.2 29.0 0.00 0.00 0.00 49 1014.3
20260507055030 17 225 1.6 38.6 0.00 0.00 0.00 49 1014.2
20260507054527 17 180 1.6 17.7 0.00 0.00 0.00 49 1014.2
20260507054025 17 180 0.0 41.8 0.00 0.00 0.00 50 1014.1
20260507053523 17 180 3.2 37.0 0.00 0.00 0.00 50 1014.0
20260507053020 17 225 3.2 70.8 0.00 0.00 0.00 50 1013.9
20260507052518 17 180 1.6 43.5 0.00 0.00 0.00 50 1013.9
20260507052015 17 225 4.8 41.8 0.00 0.00 0.00 50 1013.8
20260507051513 17 225 27.4 40.2 0.00 0.00 0.00 50 1013.9
20260507051010 17 180 3.2 40.2 0.00 0.00 0.00 50 1013.9
20260507050508 17 225 1.6 35.4 0.00 0.00 0.00 50 1013.8
20260507050006 17 315 0.0 43.5 0.00 0.00 0.00 50 1013.8
20260507045503 17 180 0.0 1.6 0.00 0.00 0.00 50 1013.8
20260507045001 16 180 0.0 37.0 0.00 0.00 0.00 50 1013.8
20260507044458 16 315 0.0 38.6 0.00 0.00 0.00 50 1013.6
20260507043956 16 180 0.0 41.8 0.00 0.00 0.00 50 1013.6
20260507043454 16 225 1.6 37.0 0.00 0.00 0.00 50 1013.7
20260507042951 16 315 0.0 3.2 0.00 0.00 0.00 50 1013.6
20260507042449 16 180 0.0 17.7 0.00 0.00 0.00 50 1013.5
20260507041946 16 180 0.0 46.7 0.00 0.00 0.00 50 1013.5
20260507041444 16 180 0.0 37.0 0.00 0.00 0.00 50 1013.4
20260507040942 16 225 3.2 40.2 0.00 0.00 0.00 50 1013.3
20260507040439 16 225 1.6 35.4 0.00 0.00 0.00 50 1013.2
20260507035937 16 225 3.2 3.2 0.00 0.00 0.00 50 1013.1
20260507035434 16 180 0.0 3.2 0.00 0.00 0.00 50 1013.1
20260507034932 16 180 0.0 37.0 0.00 0.00 0.00 50 1013.1
20260507034429 16 180 9.7 37.0 0.00 0.00 0.00 50 1013.1
20260507033927 16 180 0.0 30.6 0.00 0.00 0.00 50 1013.0
20260507033425 16 180 0.0 41.8 0.00 0.00 0.00 50 1013.0
20260507032922 16 135 0.0 37.0 0.00 0.00 0.00 50 1012.9
20260507032420 16 225 1.6 53.1 0.00 0.00 0.00 50 1012.9
20260507031917 16 315 0.0 40.2 0.00 0.00 0.00 50 1012.8
20260507031415 16 225 1.6 38.6 0.00 0.00 0.00 50 1012.7
20260507030913 16 180 1.6 27.4 0.00 0.00 0.00 50 1012.7
20260507030410 16 180 1.6 45.1 0.00 0.00 0.00 50 1012.7
20260507025908 16 225 0.0 40.2 0.00 0.00 0.00 50 1012.6
20260507024903 16 180 0.0 46.7 0.00 0.00 0.00 50 1012.6
20260507024401 16 180 6.4 37.0 0.00 0.00 0.00 50 1012.5
20260507023858 16 225 1.6 48.3 0.00 0.00 0.00 50 1012.5
20260507023356 16 180 6.4 45.1 0.00 0.00 0.00 50 1012.5
20260507022853 16 225 9.7 40.2 0.00 0.00 0.00 50 1012.5
20260507022351 17 225 3.2 43.5 0.00 0.00 0.00 50 1012.4
20260507021848 17 180 4.8 46.7 0.00 0.00 0.00 50 1012.4
20260507021346 17 225 6.4 41.8 0.00 0.00 0.00 50 1012.4
20260507020844 16 225 3.2 33.8 0.00 0.00 0.00 50 1012.4
20260507020341 16 180 1.6 41.8 0.00 0.00 0.00 50 1012.3
20260507015839 16 180 1.6 41.8 0.00 0.00 0.00 50 1012.3
20260507015336 16 225 1.6 43.5 0.00 0.00 0.00 50 1012.3
20260507014834 17 180 1.6 45.1 0.00 0.00 0.00 51 1012.3
20260507014332 17 225 3.2 45.1 0.00 0.00 0.00 51 1012.2
20260507013829 17 180 1.6 35.4 0.00 0.00 0.00 51 1012.3
20260507012824 17 180 0.0 49.9 0.00 0.00 0.00 51 1012.1
20260507012322 17 225 0.0 43.5 0.00 0.00 0.00 51 1012.1
20260507011820 17 225 4.8 43.5 0.00 0.00 0.00 51 1012.1
20260507011317 17 180 1.6 37.0 0.00 0.00 0.00 51 1012.1
20260507010815 17 225 3.2 57.9 0.00 0.00 0.00 51 1011.9
20260507010312 17 225 4.8 46.7 0.00 0.00 0.00 51 1011.8
20260507005810 17 180 1.6 38.6 0.00 0.00 0.00 51 1011.7
20260507005308 17 225 6.4 80.5 0.00 0.00 0.00 50 1011.5
20260507004805 17 225 4.8 43.5 0.00 0.00 0.00 50 1011.5
20260507004303 17 225 11.3 51.5 0.00 0.00 0.00 50 1011.5
20260507003800 17 225 1.6 37.0 0.00 0.00 0.00 50 1011.6
20260507003258 17 225 11.3 41.8 0.00 0.00 0.00 50 1011.7
20260507002755 17 180 4.8 41.8 0.00 0.00 0.00 50 1011.8
20260507002253 17 225 4.8 41.8 0.00 0.00 0.00 50 1011.9
20260507001751 17 225 8.0 49.9 0.00 0.00 0.00 50 1011.8
20260507001248 17 180 3.2 43.5 0.00 0.00 0.00 50 1011.8
20260507000746 17 225 4.8 43.5 0.00 0.00 0.00 50 1011.8
20260507000243 17 180 8.0 35.4 0.00 0.00 0.00 50 1011.6
20260506235741 17 225 6.4 43.5 0.00 0.00 0.00 50 1011.6
20260506235239 17 0 3.2 46.7 0.00 0.00 0.00 50 1011.3
20260506234736 17 225 4.8 45.1 0.00 0.00 0.00 50 1011.3
20260506234234 17 225 3.2 43.5 0.00 0.00 0.00 50 1011.2
20260506233731 17 225 4.8 59.5 0.00 0.00 0.00 50 1011.1
20260506233229 17 180 3.2 41.8 0.00 0.00 0.00 49 1010.9
20260506232726 18 180 3.2 51.5 0.00 0.00 0.00 49 1011.0
20260506232224 18 225 1.6 80.5 0.00 0.00 0.00 49 1010.9
20260506231219 18 180 8.0 75.6 0.00 0.00 0.00 49 1010.6
20260506230717 18 180 14.5 66.0 0.00 0.00 0.00 49 1010.6
20260506230214 18 225 3.2 46.7 0.00 0.00 0.00 49 1010.6
20260506225712 18 225 12.9 43.5 0.00 0.00 0.00 49 1010.4
20260506225210 18 180 6.4 86.9 0.00 0.00 0.00 48 1010.3
20260506224707 18 180 8.0 49.9 0.00 0.00 0.00 48 1010.3
20260506224205 18 180 8.0 53.1 0.00 0.00 0.00 48 1010.3
20260506223702 18 225 4.8 66.0 0.00 0.00 0.00 47 1010.2
20260506223200 18 180 1.6 45.1 0.00 0.00 0.00 46 1010.2
20260506222658 18 180 6.4 45.1 0.00 0.00 0.00 46 1009.9
20260506222155 18 180 6.4 45.1 0.00 0.00 0.00 45 1009.8
20260506221653 18 225 45.1 45.1 0.00 0.00 0.00 45 1009.9
20260506221150 18 180 1.6 43.5 0.00 0.00 0.00 44 1009.7
20260506220648 19 225 1.6 64.4 0.00 0.00 0.00 43 1009.7
20260506220145 19 180 0.0 57.9 0.00 0.00 0.00 43 1009.5
20260506215643 19 225 3.2 43.5 0.00 0.00 0.00 42 1009.3
20260506215141 19 225 4.8 53.1 0.00 0.00 0.00 42 1009.1
20260506214638 20 225 8.0 45.1 0.00 0.00 0.00 41 1009.0
20260506214136 20 180 3.2 24.1 0.00 0.00 0.00 41 1009.1
20260506213633 20 225 9.7 40.2 0.00 0.00 0.00 40 1008.9
20260506213131 20 225 8.0 41.8 0.00 0.00 0.00 40 1008.8
20260506212629 20 225 4.8 45.1 0.00 0.00 0.00 39 1008.7
20260506212126 20 180 3.2 78.9 0.00 0.00 0.00 39 1008.5
20260506211624 20 180 1.6 49.9 0.00 0.00 0.00 38 1008.4
20260506211121 20 225 3.2 37.0 0.00 0.00 0.00 37 1008.4
20260506210619 21 180 6.4 46.7 0.00 0.00 0.00 37 1008.2
20260506210117 21 270 3.2 43.5 0.00 0.00 0.00 37 1008.0
20260506205614 20 0 0.0 22.5 0.00 0.00 0.00 37 1007.8
20260506205112 20 225 0.0 12.9 0.00 0.00 0.00 36 1007.6
20260506204609 20 180 0.0 4.8 0.00 0.00 0.00 36 1007.4
20260506204107 20 180 0.0 9.7 0.00 0.00 0.00 36 1007.3
20260506203605 20 180 0.0 0.0 0.00 0.00 0.00 35 1007.2
20260506203102 20 180 0.0 0.0 0.00 0.00 0.00 35 1007.0
20260506202600 20 180 0.0 0.0 0.00 0.00 0.00 35 1006.9
20260506202057 20 180 0.0 1.6 0.00 0.00 0.00 34 1006.9
20260506201555 21 180 0.0 0.0 0.00 0.00 0.00 34 1006.8
20260506201052 21 180 0.0 0.0 0.00 0.00 0.00 34 1006.9
20260506200550 21 180 0.0 0.0 0.00 0.00 0.00 33 1006.9
20260506200048 21 180 0.0 1.6 0.00 0.00 0.00 33 1006.7
20260506195545 21 180 0.0 0.0 0.00 0.00 0.00 33 1006.7
20260506195043 22 180 0.0 0.0 0.00 0.00 0.00 33 1006.6
20260506194540 22 180 0.0 38.6 0.00 0.00 0.00 33 1006.6
20260506194038 22 225 0.0 35.4 0.00 0.00 0.00 33 1006.5
20260506193536 22 225 0.0 1.6 0.00 0.00 0.00 32 1006.4
20260506193033 22 180 14.5 35.4 0.00 0.00 0.00 32 1006.3
20260506192531 22 180 0.0 1.6 0.00 0.00 0.00 32 1006.2
20260506192028 22 180 0.0 1.6 0.00 0.00 0.00 32 1006.2
20260506191526 22 180 0.0 0.0 0.00 0.00 0.00 32 1006.1
20260506191024 22 180 0.0 0.0 0.00 0.00 0.00 31 1006.0
20260506190521 22 180 0.0 1.6 0.00 0.00 0.00 31 1006.0